Tracking 22124 objects as of 25-Jan-2021
HD Live streaming from Space Station
objects crossing your sky now

COSMOS 1766

Track COSMOS 1766 now!
10-day predictions
COSMOS 1766 is classified as:


NORAD ID: 16881
Int'l Code: 1986-055A
Perigee: 528.9 km
Apogee: 550.1 km
Inclination: 82.5 °
Period: 95.3 minutes
Semi major axis: 6910 km
RCS: 9.3716 m2 (large)
Launch date: July 28, 1986
Source: Commonwealth of Independent States (former USSR) (CIS)
Launch site: PLESETSK MISSILE AND SPACE COMPLEX (PKMTR)
aabbcc
Your satellite tracking list
Your tracking list is empty




NASA's NSSDC Master Catalog

Two Line Element Set (TLE):
1 16881U 86055A   21025.46308359  .00000457  00000-0  25304-4 0  9990
2 16881  82.5084 172.9323 0015349 241.6136 118.3547 15.11251436859308
Source of the keplerian elements: AFSPC